Wind_Speed
67 73 76 75 74 73 72 72 72 75 74 74 74 70 65 63 61 60 61 62 60 57 55 56 56 56 56 56 56 55 54 51 47 49 46 47 50 50 50 49 48 46 44 45 45
66 71 72 72 73 72 71 71 71 71 74 73 73 70 65 61 60 60 60 62 61 60 57 56 57 57 57 56 57 56 57 55 50 47 50 50 52 52 49 48 48 47 46 47 47
62 68 72 70 71 69 70 69 68 69 69 70 70 69 64 61 58 58 59 60 61 61 60 58 56 55 56 56 56 56 56 55 54 51 49 51 52 54 53 51 49 49 48 48 53
59 65 69 68 69 66 65 66 65 65 64 64 66 65 64 60 57 57 59 59 60 60 61 61 59 58 57 56 55 55 55 56 54 50 50 51 54 54 55 56 52 50 51 52 55
54 63 64 66 65 64 63 63 61 60 59 58 61 61 61 60 57 56 56 58 59 58 60 62 62 61 59 58 58 58 57 55 55 56 55 55 57 58 60 57 56 55 53 53 56
52 58 60 62 60 59 59 58 56 55 53 53 52 56 57 56 53 54 53 55 57 58 59 60 63 63 63 62 60 60 61 61 60 59 59 59 61 60 63 62 61 59 58 57 57
47 48 52 54 53 53 52 50 48 47 45 47 46 49 51 50 47 47 50 51 54 57 57 58 60 61 61 62 62 60 61 62 64 64 62 62 63 65 65 64 66 64 63 62 63
44 46 49 48 45 42 42 40 39 39 38 39 38 39 39 40 40 43 45 48 51 53 55 57 59 61 61 61 62 61 62 64 65 65 63 62 61 69 67 65 66 68 64 65 65
40 40 39 37 34 33 31 31 32 29 28 29 30 30 30 31 32 35 38 41 45 49 51 54 56 57 59 61 63 61 62 63 66 65 63 62 61 66 68 66 66 66 68 66 67
44 40 37 33 31 31 30 32 32 30 29 29 29 28 28 27 27 28 29 32 37 42 48 53 53 54 56 58 60 60 60 64 66 67 63 64 62 65 70 68 68 70 71 72 73
45 40 37 34 32 31 30 30 28 28 26 23 23 23 23 23 24 24 25 27 30 33 39 42 44 49 51 53 55 56 58 59 63 64 62 63 60 65 69 72 72 72 73 76 78
43 40 37 33 32 30 28 26 24 23 22 21 20 20 20 21 22 23 25 26 28 29 30 32 34 38 43 46 48 53 55 56 58 61 61 62 62 66 69 71 74 75 77 80 81
40 39 36 34 31 28 25 23 21 20 19 18 18 17 17 18 19 19 18 19 21 23 26 28 32 36 39 43 45 51 51 55 56 60 64 63 67 72 72 71 73 77 81 84 85
39 37 36 33 29 27 24 21 18 16 14 13 11 9 9 10 11 13 15 19 22 25 27 30 33 36 40 43 45 49 51 54 58 59 61 71 68 77 77 76 75 79 82 86 88
31 31 30 28 27 26 23 21 17 16 14 11 9 6 6 5 6 9 11 15 17 19 22 22 28 34 37 41 44 48 50 52 56 58 59 68 68 76 75 73 74 78 80 82 85
31 30 29 27 26 24 22 20 19 16 16 13 10 8 6 5 6 8 12 16 19 21 25 28 31 35 40 45 49 51 53 55 57 58 60 65 66 75 79 77 77 80 85 87 89
28 28 27 25 24 24 23 22 21 18 16 14 12 11 11 9 8 9 12 14 16 18 21 22 27 32 41 47 46 49 53 57 62 64 67 71 75 80 81 83 83 83 85 87 92
20 20 20 19 19 18 17 16 15 14 13 11 9 8 8 8 9 13 16 21 25 27 30 34 34 41 43 54 54 52 54 59 61 65 67 70 73 86 84 88 91 95 98 101 104
17 17 16 14 14 14 13 11 9 7 6 4 3 4 6 10 14 17 23 26 29 30 33 37 43 48 49 56 61 59 63 65 62 64 66 69 77 85 84 89 93 98 105 110 114
15 13 11 11 11 8 6 4 2 0 2 3 6 10 14 17 21 25 27 32 34 37 41 42 48 56 58 62 67 71 76 73 73 76 79 75 78 87 94 98 102 106 112 115 120
13 11 9 8 7 6 4 4 7 9 10 11 14 17 20 23 26 31 34 36 38 42 47 53 56 63 65 69 72 78 83 81 83 87 92 90 81 87 95 99 101 104 110 115 119
15 14 13 12 12 12 12 13 13 15 17 18 22 25 27 30 35 37 40 44 47 51 55 61 64 69 73 79 81 86 90 90 93 95 96 102 83 92 95 98 101 103 105 106 110
19 19 18 19 19 20 20 19 21 22 23 26 30 31 33 37 40 43 44 49 53 59 63 68 72 75 81 85 87 91 96 97 101 101 99 103 99 98 99 100 98 101 106 106 105
25 24 25 27 27 26 26 26 27 28 32 33 36 37 41 44 46 48 51 57 62 68 72 73 78 80 87 92 95 97 103 106 110 108 104 102 103 103 104 102 100 102 105 104 102
31 30 30 29 30 29 30 31 33 34 36 38 40 43 48 50 53 58 62 66 70 74 76 79 83 85 91 96 99 103 106 110 112 109 107 102 109 108 104 103 102 104 105 102 98
38 36 36 35 34 35 38 40 42 43 43 45 48 51 55 59 62 66 69 73 78 79 82 85 88 91 95 100 104 108 110 112 112 111 112 112 108 111 107 104 102 104 107 102 95
42 42 41 40 40 41 44 47 48 50 51 53 55 58 62 67 70 72 76 81 84 87 89 92 94 97 100 105 108 113 115 115 113 117 120 116 112 107 106 101 99 102 100 94 92
Wind_Direction
180 183 187 186 189 193 196 198 200 203 205 206 207 208 209 211 213 216 220 222 224 227 228 230 234 238 241 243 247 252 257 262 264 269 272 274 277 276 275 276 277 282 283 279 279
174 178 182 184 187 190 194 197 199 202 205 206 207 209 211 213 213 217 221 224 225 229 231 232 232 236 241 245 250 254 258 262 264 265 270 273 275 275 275 276 278 280 282 278 275
169 172 178 182 184 188 193 196 197 201 204 207 208 210 212 215 217 218 222 225 229 231 233 235 238 239 242 245 249 252 256 260 264 268 272 273 272 275 277 276 277 282 282 277 274
166 170 174 179 182 186 192 195 196 200 203 207 208 210 213 215 218 220 223 227 230 233 236 239 241 242 243 246 250 255 258 263 266 266 268 271 272 276 276 278 278 277 279 277 273
161 170 173 177 180 185 190 194 196 198 202 205 209 210 213 217 220 223 226 228 231 235 238 240 243 246 249 251 254 256 260 263 266 268 270 270 270 272 273 277 277 276 275 273 271
161 166 171 175 178 184 189 192 196 198 201 206 209 212 214 218 223 225 228 231 233 235 238 242 246 248 251 253 255 258 262 264 267 270 271 271 273 272 274 274 275 276 276 274 272
152 159 166 173 178 185 189 192 195 199 201 205 209 214 218 223 225 227 230 233 235 238 241 244 246 250 253 256 258 259 261 264 265 267 269 271 274 273 274 274 277 276 274 277 276
141 154 163 172 177 182 184 187 191 197 197 203 208 212 217 221 227 231 234 236 238 241 243 247 249 251 253 255 257 258 261 263 263 266 268 271 272 274 274 275 276 277 277 278 277
131 143 154 161 167 172 175 181 184 188 191 195 203 210 218 224 232 237 240 242 242 242 243 245 247 250 253 255 257 259 262 263 266 266 268 270 270 271 273 273 273 274 276 275 273
121 132 141 144 150 154 159 169 175 177 181 187 194 203 212 221 230 237 243 248 247 244 243 244 247 250 253 255 259 261 262 265 266 268 268 271 270 270 272 271 270 272 274 274 273
113 122 129 135 141 148 156 163 172 178 182 190 195 203 212 223 234 244 248 249 249 249 248 249 251 253 256 259 261 262 264 265 268 268 269 267 267 268 269 271 271 272 273 273 273
109 116 123 133 139 144 150 153 160 167 173 180 192 206 218 227 234 239 245 250 250 250 250 254 256 258 261 261 263 264 266 266 267 269 269 269 267 266 267 269 272 272 272 272 272
106 110 117 122 127 134 141 149 159 166 178 188 197 206 214 224 232 239 248 255 261 265 265 266 267 269 268 268 268 268 268 268 269 272 273 270 271 272 270 271 272 273 275 274 274
102 104 107 111 115 120 124 130 137 144 153 167 174 187 206 228 243 253 262 268 273 275 276 279 279 278 278 277 276 276 275 275 276 275 276 279 273 276 277 274 272 271 272 275 277
106 109 112 112 115 118 121 127 128 130 136 138 148 157 195 228 260 279 290 295 299 304 298 294 293 291 290 286 285 285 284 284 284 284 281 280 282 281 277 275 275 275 275 275 274
103 106 108 111 112 113 113 113 113 116 118 117 114 109 97 59 24 1 345 340 335 329 320 317 312 304 302 298 295 294 292 289 287 287 286 286 286 283 284 282 280 279 277 275 272
101 103 104 104 104 104 104 104 102 102 98 94 86 75 62 43 22 10 3 6 359 354 340 341 333 330 331 324 315 307 300 295 293 291 292 293 292 287 286 286 284 279 276 274 272
111 111 111 111 108 108 107 106 105 106 101 88 78 63 44 17 8 349 354 346 341 342 336 326 328 323 327 327 327 319 311 307 305 301 297 298 296 294 293 290 289 287 284 280 276
124 122 119 118 122 121 118 118 117 117 120 105 43 358 342 336 335 337 330 331 328 326 329 328 329 327 326 329 330 324 321 314 308 306 302 298 297 297 294 291 288 285 280 278 277
147 143 142 145 146 142 137 132 128 154 313 311 319 323 322 320 322 322 322 322 322 321 323 324 327 324 328 325 326 326 325 322 314 310 307 306 306 304 304 294 292 289 286 283 281
174 170 172 184 195 200 229 268 291 291 294 300 308 311 314 313 312 315 317 318 318 318 318 321 323 322 326 324 325 324 324 321 318 315 314 311 312 307 296 293 290 287 285 285 284
207 204 208 219 235 250 261 276 293 290 294 300 305 308 308 311 313 315 318 318 319 320 320 320 322 323 325 325 324 324 324 321 320 318 318 311 315 303 300 295 293 292 290 285 282
226 231 236 246 253 258 268 275 286 296 298 301 303 304 306 308 310 311 314 315 316 315 317 318 320 323 323 322 323 323 323 321 320 319 319 314 310 308 304 302 304 300 296 294 291
238 245 254 258 257 262 267 275 285 295 298 298 301 300 302 305 306 307 310 313 315 316 316 318 318 321 323 322 323 324 323 322 321 321 316 315 313 311 308 307 303 302 298 295 294
245 249 258 263 262 260 265 272 281 288 293 294 296 298 301 303 305 307 308 309 311 313 315 316 318 320 322 321 322 323 323 322 323 321 318 318 315 314 310 308 306 304 300 299 296
246 252 258 265 267 270 275 277 282 287 291 293 297 299 299 300 302 304 305 307 309 310 313 316 317 320 321 321 322 323 321 323 323 322 322 318 319 315 313 311 311 306 303 302 302
250 256 261 267 271 274 279 281 284 287 289 292 294 296 296 297 300 304 305 308 310 311 314 315 318 320 320 321 322 323 322 324 323 324 322 321 318 316 314 313 312 306 303 304 303
Height
10646 10669 10693 10716 10733 10748 10764 10778 10790 10803 10816 10829 10842 10854 10864 10873 10882 10890 10894 10903 10908 10914 10920 10924 10927 10931 10934 10938 10940 10942 10944 10947 10949 10950 10950 10950 10950 10951 10950 10950 10949 10950 10949 10948 10947
10650 10671 10695 10713 10730 10746 10761 10775 10788 10801 10813 10826 10839 10850 10861 10870 10879 10885 10892 10899 10905 10910 10915 10919 10923 10927 10929 10932 10935 10937 10938 10942 10942 10944 10943 10944 10942 10942 10942 10942 10942 10943 10942 10940 10940
10660 10678 10696 10714 10731 10746 10760 10773 10786 10799 10812 10825 10837 10848 10858 10867 10876 10883 10888 10895 10900 10905 10910 10915 10919 10922 10925 10927 10929 10931 10931 10934 10936 10936 10937 10937 10935 10934 10934 10932 10935 10934 10932 10931 10926
10671 10685 10702 10718 10733 10748 10762 10775 10787 10799 10812 10824 10835 10847 10857 10865 10872 10879 10885 10890 10896 10900 10905 10909 10913 10916 10919 10920 10924 10924 10926 10928 10929 10929 10930 10929 10927 10927 10922 10923 10928 10924 10923 10920 10916
10680 10693 10709 10725 10738 10752 10765 10777 10790 10802 10813 10824 10835 10846 10855 10863 10870 10876 10882 10887 10892 10896 10900 10904 10907 10911 10913 10915 10918 10917 10920 10920 10921 10922 10922 10921 10918 10918 10912 10914 10913 10913 10911 10909 10907
10690 10704 10718 10733 10745 10758 10770 10782 10794 10806 10816 10827 10837 10846 10854 10862 10868 10873 10879 10884 10889 10892 10895 10899 10902 10904 10905 10908 10910 10912 10911 10911 10912 10912 10914 10912 10907 10906 10901 10901 10901 10902 10898 10898 10897
10705 10718 10731 10744 10754 10765 10777 10788 10800 10811 10820 10830 10838 10846 10854 10861 10866 10871 10876 10881 10884 10888 10891 10893 10895 10897 10899 10902 10902 10903 10902 10903 10902 10903 10906 10905 10894 10893 10891 10889 10888 10890 10889 10887 10885
10718 10730 10741 10752 10764 10774 10785 10795 10806 10815 10823 10832 10840 10847 10853 10859 10864 10869 10872 10876 10879 10882 10885 10887 10889 10890 10892 10894 10892 10893 10894 10892 10892 10893 10896 10895 10883 10877 10881 10879 10877 10875 10877 10876 10874
10733 10744 10754 10764 10774 10783 10793 10802 10811 10818 10826 10833 10840 10846 10852 10856 10861 10864 10867 10869 10872 10875 10878 10879 10880 10882 10884 10885 10883 10886 10884 10884 10879 10884 10886 10882 10873 10866 10865 10868 10864 10863 10862 10862 10858
10746 10755 10763 10773 10782 10790 10798 10806 10814 10820 10827 10832 10838 10844 10848 10852 10855 10858 10860 10862 10864 10866 10868 10869 10872 10874 10875 10876 10876 10876 10877 10871 10869 10869 10876 10869 10865 10853 10850 10853 10850 10849 10848 10844 10841
10760 10768 10775 10782 10789 10797 10803 10809 10817 10823 10828 10833 10838 10842 10846 10849 10852 10854 10856 10857 10859 10860 10862 10865 10866 10866 10868 10869 10868 10867 10865 10863 10857 10856 10860 10855 10852 10842 10835 10835 10840 10840 10834 10826 10825
10774 10778 10784 10791 10796 10803 10808 10814 10818 10823 10828 10832 10837 10840 10843 10846 10849 10851 10852 10854 10855 10856 10857 10858 10859 10861 10860 10860 10859 10855 10855 10852 10848 10845 10844 10842 10836 10827 10819 10827 10824 10822 10817 10810 10810
10786 10788 10793 10798 10803 10808 10813 10817 10821 10825 10829 10832 10836 10839 10843 10845 10847 10848 10849 10850 10851 10852 10852 10853 10853 10853 10853 10852 10851 10845 10846 10841 10841 10834 10828 10831 10822 10809 10811 10815 10813 10807 10797 10791 10790
10795 10798 10801 10804 10808 10812 10816 10820 10823 10827 10830 10833 10836 10839 10841 10843 10845 10846 10847 10848 10848 10849 10850 10849 10848 10847 10844 10842 10840 10835 10834 10831 10825 10824 10820 10803 10811 10787 10791 10797 10799 10791 10784 10778 10772
10802 10804 10807 10810 10813 10815 10819 10822 10825 10828 10831 10833 10836 10838 10839 10841 10842 10843 10844 10845 10844 10845 10844 10845 10841 10837 10835 10832 10830 10826 10823 10819 10813 10809 10807 10784 10789 10768 10770 10779 10778 10770 10767 10764 10758
10808 10809 10812 10814 10816 10819 10821 10824 10827 10829 10831 10833 10835 10837 10838 10839 10840 10840 10840 10839 10839 10838 10836 10835 10835 10831 10829 10824 10820 10817 10812 10805 10799 10796 10790 10779 10773 10750 10743 10752 10757 10753 10743 10738 10733
10814 10816 10817 10819 10820 10822 10824 10826 10828 10830 10831 10833 10834 10835 10835 10836 10836 10836 10836 10836 10835 10835 10832 10831 10827 10823 10818 10812 10810 10804 10797 10792 10785 10781 10772 10762 10748 10722 10726 10725 10726 10722 10716 10710 10701
10819 10820 10821 10822 10823 10824 10826 10827 10829 10830 10832 10832 10833 10833 10834 10834 10833 10832 10832 10829 10827 10827 10825 10821 10821 10813 10810 10801 10796 10789 10782 10773 10770 10762 10757 10742 10727 10696 10705 10699 10694 10686 10679 10672 10666
10821 10822 10823 10824 10825 10826 10827 10828 10829 10829 10830 10830 10830 10831 10830 10829 10828 10827 10824 10824 10822 10819 10816 10813 10808 10803 10799 10791 10784 10777 10771 10760 10754 10745 10739 10735 10718 10684 10689 10680 10671 10660 10643 10634 10629
10820 10821 10822 10823 10824 10825 10826 10826 10827 10827 10827 10827 10827 10826 10825 10824 10822 10820 10818 10815 10812 10808 10803 10803 10799 10788 10784 10776 10768 10759 10749 10739 10728 10721 10713 10712 10698 10670 10653 10645 10630 10619 10600 10592 10585
10819 10819 10820 10821 10822 10822 10822 10822 10823 10823 10823 10822 10821 10820 10819 10817 10814 10812 10810 10806 10803 10798 10793 10787 10784 10776 10771 10762 10753 10740 10731 10718 10708 10693 10677 10673 10684 10654 10632 10620 10606 10592 10577 10563 10551
10816 10816 10817 10817 10818 10818 10818 10818 10818 10817 10816 10815 10814 10813 10811 10809 10805 10802 10798 10794 10789 10784 10780 10772 10768 10762 10753 10741 10732 10721 10708 10694 10680 10670 10652 10628 10659 10621 10606 10587 10574 10557 10541 10530 10516
10812 10812 10812 10812 10813 10813 10813 10812 10811 10810 10809 10807 10805 10804 10801 10799 10795 10791 10787 10782 10778 10771 10767 10759 10752 10746 10734 10725 10717 10704 10688 10671 10657 10643 10636 10605 10599 10584 10566 10551 10539 10519 10497 10481 10469
10806 10807 10807 10807 10807 10807 10806 10806 10804 10802 10800 10798 10796 10794 10791 10787 10784 10780 10776 10770 10763 10755 10751 10745 10734 10728 10716 10699 10689 10678 10662 10643 10626 10614 10597 10580 10561 10547 10529 10517 10502 10485 10464 10448 10437
10799 10799 10799 10800 10800 10800 10799 10798 10796 10794 10791 10789 10786 10783 10779 10775 10770 10766 10761 10755 10749 10740 10734 10728 10719 10711 10698 10681 10671 10657 10641 10622 10605 10584 10562 10560 10531 10511 10498 10480 10464 10442 10419 10411 10400
10790 10791 10791 10791 10791 10790 10790 10788 10785 10783 10781 10778 10775 10770 10766 10761 10757 10753 10748 10742 10732 10727 10716 10709 10701 10693 10679 10661 10649 10637 10619 10607 10582 10559 10542 10520 10508 10474 10461 10446 10430 10401 10380 10371 10361
10781 10781 10781 10781 10781 10780 10779 10776 10774 10771 10768 10765 10761 10757 10752 10747 10742 10737 10730 10722 10712 10703 10695 10686 10679 10671 10660 10643 10630 10611 10595 10580 10559 10529 10504 10491 10473 10457 10437 10418 10404 10370 10355 10344 10329